TimeCST,TemperatureF,Dew PointF,Humidity,Sea Level PressureIn,VisibilityMPH,Wind Direction,Wind SpeedMPH,Gust SpeedMPH,PrecipitationIn,Events,Conditions,WindDirDegrees,DateUTC
12:53 AM,44.1,39.9,85,30.04,8.0,SE,5.8,-,N/A,,Clear,130,2012-12-01 06:53:00
1:53 AM,46.0,41.0,83,30.05,10.0,ESE,6.9,-,N/A,,Clear,120,2012-12-01 07:53:00
2:53 AM,50.0,44.1,80,30.05,10.0,ESE,4.6,-,N/A,,Clear,110,2012-12-01 08:53:00
3:53 AM,52.0,46.9,83,30.04,9.0,East,5.8,-,N/A,,Overcast,100,2012-12-01 09:53:00
4:53 AM,48.0,45.0,89,30.03,7.0,East,6.9,-,N/A,,Mostly Cloudy,100,2012-12-01 10:53:00
5:53 AM,53.1,48.9,86,30.02,7.0,ESE,6.9,-,N/A,,Overcast,110,2012-12-01 11:53:00
7:53 AM,54.0,48.9,83,30.00,6.0,ESE,4.6,-,N/A,,Haze,110,2012-12-01 13:53:00
8:53 AM,57.9,51.1,78,29.99,8.0,SE,9.2,-,N/A,,Scattered Clouds,140,2012-12-01 14:53:00
9:53 AM,62.1,52.0,70,29.99,10.0,SSE,10.4,-,N/A,,Scattered Clouds,160,2012-12-01 15:53:00
10:14 AM,62.6,51.8,68,30.00,10.0,SSE,10.4,18.4,N/A,,Overcast,150,2012-12-01 16:14:00
10:53 AM,64.0,53.1,67,29.96,10.0,South,12.7,17.3,N/A,,Overcast,170,2012-12-01 16:53:00
11:53 AM,66.9,54.0,63,29.93,10.0,South,11.5,19.6,N/A,,Scattered Clouds,170,2012-12-01 17:53:00
12:08 PM,66.2,53.6,64,29.95,10.0,South,11.5,18.4,N/A,,Mostly Cloudy,170,2012-12-01 18:08:00
12:40 PM,68.0,53.6,60,29.93,10.0,South,16.1,20.7,N/A,,Scattered Clouds,180,2012-12-01 18:40:00
12:53 PM,68.0,54.0,61,29.90,10.0,South,13.8,18.4,N/A,,Scattered Clouds,170,2012-12-01 18:53:00
3:53 PM,68.0,54.0,61,29.86,10.0,SSE,6.9,-,N/A,,Overcast,150,2012-12-01 21:53:00
4:53 PM,66.9,54.0,63,29.85,10.0,SE,6.9,-,N/A,,Scattered Clouds,140,2012-12-01 22:53:00
5:53 PM,66.0,54.0,65,29.86,10.0,ESE,6.9,-,N/A,,Overcast,120,2012-12-01 23:53:00
6:53 PM,68.0,54.0,61,29.87,10.0,SSE,8.1,16.1,N/A,,Mostly Cloudy,160,2012-12-02 00:53:00
7:53 PM,68.0,55.0,63,29.86,10.0,South,9.2,20.7,N/A,,Overcast,170,2012-12-02 01:53:00
8:53 PM,68.0,55.0,63,29.86,10.0,South,10.4,-,N/A,,Overcast,170,2012-12-02 02:53:00
9:53 PM,66.9,55.0,66,29.87,10.0,SSE,9.2,-,N/A,,Overcast,160,2012-12-02 03:53:00
10:53 PM,66.0,55.0,68,29.88,10.0,SSE,5.8,-,N/A,,Overcast,160,2012-12-02 04:53:00
11:53 PM,66.0,55.0,68,29.88,10.0,SSE,3.5,-,N/A,,Overcast,150,2012-12-02 05:53:00